Wind_Speed
15 15 15 15 15 15 15 16 15 14 15 16 17 17 17 17 17 16 16 17 18 18 18 19 20 20 20 20 21 21 21 21 21 22 22 23 24 24 24 25 26 26 26
15 15 15 15 15 15 16 15 15 15 15 16 16 16 16 16 16 16 16 17 18 18 18 19 20 20 20 20 20 21 21 21 21 21 21 21 22 24 24 25 26 26 26
15 15 15 15 15 15 15 15 14 15 15 16 16 16 16 16 16 17 17 17 18 18 19 19 20 20 20 21 20 20 20 19 20 20 21 21 22 23 24 24 25 25 25
15 15 15 15 16 16 15 15 15 16 15 16 16 16 16 16 16 17 17 18 18 19 19 19 20 21 20 20 19 19 19 20 20 20 20 21 22 23 22 22 23 24 24
15 15 15 16 16 16 16 16 16 16 16 16 16 15 16 17 17 17 18 19 20 20 20 20 20 20 19 19 18 18 19 20 21 21 21 21 21 21 21 21 22 23 23
15 15 16 17 18 16 16 16 16 16 16 16 15 16 17 17 18 18 19 20 20 20 20 19 19 19 18 18 18 18 19 20 20 20 21 21 20 20 20 20 21 22 23
15 16 17 18 18 16 16 16 15 15 15 15 16 17 17 17 17 18 19 20 20 20 19 19 19 19 19 18 18 18 18 19 20 20 20 20 20 20 20 20 21 21 22
15 17 17 17 17 16 16 16 15 15 16 16 16 16 16 16 16 18 19 20 20 19 18 18 18 19 18 18 18 18 18 18 19 19 19 20 20 20 20 20 20 21 21
15 16 16 17 17 16 17 15 14 15 15 15 15 16 16 16 17 18 18 19 19 19 18 18 19 19 18 18 18 18 18 18 18 18 18 18 19 19 20 20 20 20 20
15 16 16 16 16 17 16 15 14 15 14 14 15 15 16 16 17 17 17 18 18 18 18 18 18 18 18 18 18 18 18 18 18 18 18 18 18 19 19 19 19 19 19
14 15 15 16 16 16 16 15 15 15 14 15 15 16 15 15 14 16 16 17 17 17 17 17 17 17 17 17 17 17 17 17 16 17 18 18 18 18 18 18 18 18 19
15 15 15 15 15 15 15 15 15 15 15 15 15 15 14 14 14 15 16 16 16 17 17 17 17 17 17 16 17 17 16 15 15 16 17 17 16 16 17 17 17 17 18
16 15 15 15 15 14 14 14 15 14 14 14 14 14 13 14 14 15 16 16 16 17 17 17 17 17 16 16 16 16 15 16 16 16 16 15 15 16 15 15 16 16 17
16 16 15 15 15 15 15 14 14 14 14 14 14 14 13 14 14 14 15 16 16 16 16 17 17 17 16 16 16 16 15 15 15 15 15 15 15 14 14 14 15 16 16
17 16 16 16 16 15 15 14 14 14 14 13 13 14 14 14 14 14 15 15 15 16 16 16 17 17 17 17 16 15 14 14 15 15 14 14 14 14 14 14 14 14 14
17 16 16 16 16 16 15 15 14 13 13 13 13 13 13 14 15 14 15 15 15 16 16 16 16 16 17 16 15 14 14 14 14 14 13 14 13 14 13 13 13 13 13
16 16 16 16 16 15 15 14 13 12 12 13 13 13 13 14 15 15 15 15 15 15 16 17 16 16 16 16 15 14 15 15 14 13 13 13 13 13 12 12 13 12 12
17 17 17 17 16 16 15 14 13 13 14 14 13 13 14 14 15 15 15 15 15 15 16 17 17 16 16 15 15 15 15 15 14 13 13 14 13 12 12 12 12 12 11
18 18 17 17 16 16 15 15 15 15 15 15 15 15 14 15 15 14 15 16 16 16 16 16 17 17 17 16 15 15 15 15 15 14 14 13 12 12 12 12 11 11 10
20 19 18 18 18 17 17 17 16 16 16 16 16 16 16 15 15 15 15 15 16 16 16 16 17 17 16 16 15 15 15 15 15 14 14 13 12 12 12 11 10 10 9
22 20 19 19 20 19 19 19 19 18 17 16 17 17 16 16 15 15 15 15 15 15 16 16 16 16 16 16 16 16 16 15 15 14 14 13 12 11 11 11 10 9 8
24 23 22 21 21 21 21 20 21 19 18 17 17 16 17 17 16 16 16 15 15 15 15 15 15 15 15 16 16 15 15 15 14 13 13 12 11 10 10 10 9 8 8
25 24 23 23 23 23 22 22 22 22 19 17 17 16 17 16 16 17 16 15 15 15 15 15 15 15 15 15 15 15 14 14 13 12 11 10 10 10 10 10 10 9 9
25 25 24 24 24 24 24 24 23 22 21 19 18 18 18 17 17 17 16 16 15 15 15 15 15 15 15 15 15 15 15 14 13 12 11 11 11 10 10 10 9 9 9
26 25 25 25 25 25 25 25 24 23 22 20 19 19 19 17 17 17 16 16 15 16 16 15 15 15 15 15 15 14 14 13 12 12 11 11 10 10 10 10 9 9 9
24 24 24 24 24 24 25 25 25 24 22 21 20 19 19 18 17 17 17 17 16 16 16 16 16 15 14 14 14 14 13 13 12 11 11 11 10 10 10 10 10 9 9
Wind_Direction
298 301 307 311 311 308 306 304 305 308 310 308 308 307 305 306 306 309 311 310 306 302 299 298 296 294 293 292 287 285 283 282 282 279 277 276 275 273 274 271 269 269 269
298 295 301 305 307 307 310 307 306 305 307 307 307 305 307 306 305 306 307 309 307 304 301 300 298 296 295 294 291 287 284 282 282 282 280 278 276 275 275 274 273 271 270
297 296 299 300 305 308 309 311 309 307 308 307 306 305 305 305 305 306 307 308 307 305 303 301 299 298 297 295 293 290 286 282 282 284 285 283 281 280 275 274 272 272 270
294 297 300 301 304 307 309 310 306 304 304 306 306 306 306 308 309 309 307 308 309 307 305 303 301 299 298 297 294 292 287 283 283 284 286 286 285 281 277 275 272 270 270
295 297 298 299 302 302 304 307 307 308 305 305 307 305 305 305 306 309 310 312 312 313 311 307 304 301 300 299 296 292 288 285 284 285 285 285 285 283 279 276 273 271 271
294 297 300 300 302 302 304 306 306 307 305 303 307 308 307 306 307 309 311 313 313 313 313 311 310 306 303 301 298 294 289 287 287 286 285 285 285 285 282 278 274 272 271
292 296 301 300 299 301 304 305 306 307 306 305 307 309 309 310 311 312 313 314 314 313 313 313 312 309 306 304 301 297 293 290 289 288 287 285 284 285 286 283 277 274 271
293 296 298 300 300 300 302 303 305 307 307 307 308 309 311 311 312 314 315 316 316 314 313 314 313 311 308 306 303 300 296 293 291 289 288 286 285 285 285 283 280 277 273
292 294 297 299 299 300 303 304 307 307 308 308 307 309 309 311 311 314 316 317 317 317 316 316 316 314 311 308 305 303 299 296 293 291 291 289 287 286 285 284 283 279 275
295 294 294 297 298 300 301 302 304 306 308 308 309 311 310 310 312 315 318 320 321 323 322 321 320 319 315 310 307 304 302 298 296 295 293 292 290 289 289 287 285 280 277
292 293 293 296 301 301 300 300 303 308 308 306 309 312 314 313 314 319 320 321 322 322 323 323 324 323 322 318 312 308 305 301 300 298 298 296 295 295 292 289 287 283 281
285 290 293 297 303 302 301 302 303 307 308 308 309 313 316 316 316 319 322 323 322 322 323 322 322 322 323 322 321 317 314 311 308 307 306 303 301 302 300 296 293 290 285
286 290 293 296 301 301 301 304 306 305 307 309 310 312 315 317 318 320 322 323 322 322 323 322 321 323 324 325 324 321 317 317 317 316 313 311 305 304 304 301 298 296 293
284 288 292 296 297 298 299 302 306 306 307 309 311 313 314 315 318 320 321 322 322 322 322 321 322 323 323 323 323 320 318 319 320 319 317 315 313 307 305 302 301 301 299
282 286 290 295 299 298 300 303 305 305 307 308 310 313 317 319 318 319 320 319 320 322 323 324 324 323 323 323 323 320 320 320 321 322 319 319 319 315 312 307 303 302 303
280 285 288 291 297 300 299 303 306 305 304 305 307 311 313 317 320 324 326 321 320 322 325 325 325 323 322 325 325 324 321 320 321 319 317 317 320 318 315 310 307 306 304
277 280 285 290 292 292 297 300 301 302 303 302 303 306 310 314 318 322 323 321 321 323 326 327 325 323 324 325 324 324 322 320 319 318 318 318 318 317 316 312 311 309 304
275 276 279 284 286 289 291 294 295 299 300 299 300 303 305 310 315 317 319 320 322 326 329 329 327 326 325 324 324 325 324 324 321 318 318 317 316 315 317 315 312 312 306
273 273 275 277 279 282 284 286 291 296 298 297 297 300 302 307 312 313 315 316 320 324 329 332 331 330 328 325 326 327 326 326 323 319 317 315 313 314 313 315 314 313 312
272 273 272 274 276 278 280 280 283 290 294 295 294 297 299 302 306 308 311 313 317 320 324 328 329 329 328 327 328 327 327 326 323 318 315 314 312 312 312 314 312 310 310
273 273 273 271 272 274 276 277 278 282 287 291 290 293 296 297 301 304 307 311 317 320 323 326 327 328 328 326 326 327 328 326 322 319 318 316 313 313 316 318 314 308 304
271 272 271 270 270 272 273 274 276 278 282 286 290 292 293 294 294 297 302 307 312 316 318 323 326 327 326 327 328 329 328 327 326 323 322 320 316 315 320 322 319 310 303
269 269 269 269 270 270 272 274 276 278 278 282 286 289 291 292 293 296 298 302 307 309 313 317 321 322 323 326 329 331 332 330 328 327 327 326 323 320 320 322 319 312 306
267 268 267 267 267 269 272 273 275 274 275 279 284 287 288 289 292 293 296 299 302 305 308 311 314 317 319 322 325 326 326 327 327 326 325 323 321 316 313 316 317 312 309
266 267 267 267 266 268 272 273 273 275 275 275 277 281 283 284 286 290 292 294 297 301 304 307 309 310 313 316 321 326 327 327 328 327 326 321 320 317 313 314 316 314 311
270 268 269 270 270 270 270 272 273 273 273 274 276 280 280 280 283 286 288 290 293 296 299 302 305 308 311 315 320 324 326 328 328 330 329 326 322 319 315 312 311 308 306
Height
5842 5840 5839 5837 5835 5834 5833 5831 5830 5828 5826 5825 5823 5821 5819 5817 5815 5813 5811 5809 5807 5805 5803 5801 5799 5798 5796 5794 5793 5792 5792 5791 5790 5790 5789 5788 5788 5788 5788 5788 5788 5788 5788
5839 5837 5836 5834 5833 5832 5830 5828 5826 5825 5822 5821 5820 5818 5815 5813 5811 5809 5807 5805 5803 5801 5798 5796 5794 5792 5791 5789 5787 5787 5786 5785 5784 5783 5783 5782 5783 5781 5781 5780 5780 5781 5781
5835 5834 5833 5832 5830 5829 5827 5825 5823 5821 5819 5817 5815 5813 5811 5809 5807 5805 5803 5801 5798 5796 5794 5791 5789 5787 5786 5784 5782 5781 5780 5779 5778 5777 5777 5776 5776 5775 5775 5774 5773 5773 5774
5832 5831 5830 5829 5827 5826 5824 5821 5819 5817 5815 5813 5811 5809 5807 5805 5803 5801 5799 5796 5794 5791 5789 5786 5784 5782 5780 5778 5777 5775 5774 5773 5772 5771 5771 5770 5769 5768 5768 5768 5767 5766 5766
5830 5829 5827 5826 5824 5822 5820 5818 5815 5813 5812 5810 5807 5805 5803 5801 5799 5797 5794 5792 5789 5786 5784 5781 5779 5777 5775 5773 5771 5770 5768 5767 5766 5765 5765 5764 5763 5761 5761 5761 5760 5759 5759
5827 5826 5824 5822 5820 5818 5816 5814 5812 5810 5808 5806 5804 5802 5800 5797 5794 5792 5790 5787 5784 5782 5779 5777 5775 5772 5770 5768 5766 5764 5763 5761 5760 5759 5758 5758 5757 5756 5755 5754 5753 5752 5752
5824 5823 5821 5819 5816 5814 5812 5810 5808 5806 5804 5802 5800 5798 5796 5793 5790 5788 5786 5783 5780 5777 5775 5772 5770 5767 5765 5763 5761 5759 5757 5756 5754 5753 5752 5751 5750 5749 5748 5747 5746 5746 5745
5821 5819 5817 5815 5813 5811 5809 5807 5804 5803 5800 5798 5797 5794 5792 5789 5787 5784 5781 5779 5776 5773 5771 5768 5765 5763 5760 5758 5756 5754 5752 5750 5749 5748 5746 5745 5744 5743 5742 5741 5740 5739 5739
5817 5816 5814 5812 5809 5807 5805 5803 5801 5799 5797 5795 5792 5790 5787 5785 5783 5780 5777 5775 5772 5769 5766 5763 5761 5758 5756 5753 5751 5749 5747 5745 5744 5742 5741 5739 5738 5737 5736 5734 5733 5733 5732
5814 5812 5810 5808 5806 5804 5802 5799 5797 5795 5793 5791 5789 5786 5784 5782 5779 5776 5774 5771 5768 5765 5762 5759 5757 5754 5752 5749 5747 5744 5742 5741 5739 5738 5736 5735 5733 5732 5730 5729 5727 5726 5726
5810 5809 5807 5804 5802 5800 5798 5795 5793 5791 5789 5787 5785 5783 5780 5778 5776 5773 5771 5768 5765 5762 5759 5756 5754 5751 5748 5745 5743 5741 5738 5736 5735 5733 5732 5730 5728 5727 5725 5723 5722 5721 5720
5806 5805 5803 5801 5798 5796 5794 5792 5790 5787 5785 5783 5781 5779 5777 5775 5773 5770 5768 5765 5762 5759 5757 5754 5751 5748 5745 5742 5740 5737 5735 5733 5731 5729 5727 5725 5724 5722 5720 5719 5717 5716 5714
5803 5801 5799 5797 5795 5792 5790 5788 5786 5784 5782 5780 5778 5776 5774 5772 5770 5767 5765 5762 5759 5757 5754 5751 5748 5745 5742 5739 5737 5734 5732 5730 5727 5725 5723 5721 5719 5717 5716 5714 5713 5711 5709
5798 5797 5795 5793 5791 5789 5787 5785 5783 5781 5779 5777 5775 5773 5771 5769 5767 5764 5762 5759 5757 5754 5751 5748 5746 5742 5739 5737 5734 5731 5729 5726 5724 5722 5720 5717 5715 5714 5712 5710 5708 5706 5705
5794 5792 5791 5789 5787 5785 5784 5782 5780 5778 5776 5775 5773 5771 5769 5767 5764 5762 5759 5756 5754 5751 5748 5745 5742 5739 5736 5734 5731 5728 5726 5723 5721 5719 5716 5714 5712 5710 5708 5706 5704 5703 5701
5789 5788 5787 5785 5783 5782 5780 5778 5776 5775 5773 5772 5770 5769 5767 5764 5762 5759 5756 5754 5751 5748 5745 5742 5739 5736 5733 5730 5727 5725 5723 5720 5718 5715 5713 5711 5709 5707 5705 5703 5701 5699 5698
5784 5783 5782 5781 5779 5778 5776 5775 5773 5772 5770 5769 5767 5766 5764 5762 5759 5756 5754 5751 5748 5745 5742 5739 5736 5733 5730 5727 5724 5722 5719 5717 5715 5712 5710 5708 5706 5704 5702 5700 5698 5696 5694
5779 5778 5777 5776 5775 5774 5772 5771 5770 5769 5767 5766 5764 5763 5761 5758 5756 5754 5751 5748 5745 5743 5739 5736 5733 5730 5727 5724 5721 5719 5716 5714 5711 5709 5707 5705 5703 5701 5699 5697 5695 5694 5692
5774 5773 5772 5771 5770 5769 5768 5767 5766 5765 5764 5762 5761 5759 5757 5755 5753 5750 5748 5746 5743 5740 5737 5734 5731 5727 5724 5721 5719 5716 5713 5711 5708 5706 5704 5702 5700 5699 5697 5695 5693 5691 5690
5767 5767 5767 5766 5765 5764 5763 5762 5762 5761 5760 5758 5757 5755 5753 5751 5749 5747 5745 5742 5739 5737 5734 5731 5728 5725 5722 5719 5716 5713 5711 5708 5705 5703 5701 5699 5697 5695 5694 5692 5690 5689 5688
5760 5760 5760 5760 5760 5759 5758 5757 5756 5755 5755 5753 5752 5750 5749 5747 5745 5743 5741 5738 5736 5734 5731 5728 5725 5722 5719 5716 5713 5710 5708 5705 5702 5700 5698 5696 5694 5692 5691 5689 5688 5687 5686
5754 5754 5754 5754 5753 5753 5752 5752 5751 5750 5749 5748 5747 5745 5744 5742 5740 5739 5737 5735 5732 5730 5728 5726 5723 5720 5717 5714 5711 5708 5705 5702 5700 5697 5695 5693 5691 5690 5688 5687 5686 5685 5684
5746 5746 5747 5747 5747 5746 5746 5745 5745 5744 5743 5742 5741 5740 5739 5737 5736 5734 5733 5731 5729 5727 5725 5723 5720 5718 5715 5712 5709 5706 5703 5700 5697 5695 5693 5691 5689 5688 5687 5685 5684 5683 5682
5738 5739 5739 5739 5740 5739 5739 5738 5738 5737 5737 5736 5735 5734 5733 5732 5731 5730 5728 5727 5725 5723 5721 5719 5717 5714 5712 5709 5706 5703 5700 5697 5695 5693 5691 5689 5687 5686 5684 5683 5682 5681 5680
5730 5731 5731 5731 5732 5731 5731 5731 5731 5731 5730 5730 5728 5728 5727 5726 5726 5724 5723 5722 5721 5719 5717 5715 5713 5711 5709 5706 5703 5700 5697 5695 5692 5690 5688 5686 5685 5683 5682 5681 5680 5679 5679
5722 5722 5723 5723 5723 5724 5724 5724 5724 5723 5723 5723 5723 5722 5721 5720 5720 5719 5718 5717 5716 5715 5713 5711 5709 5707 5705 5703 5700 5698 5695 5693 5690 5688 5686 5684 5682 5681 5680 5678 5678 5677 5676